#timestamp,LO_Frequency,Hit,StdDev 
1564506015.4,286046998.2,P
1564506035.3,286047000.2,N
1564506055.1,286047002.8,N
1564506075.9,286047002.2,N
1564506095.7,286047001.7,N
1564506115.5,286047000.1,N
1564506135.4,286047002.4,N
1564506155.2,286047002.7,N
1564506175.0,286047001.4,N
1564506175.9,286047001.4,N
1564506195.8,286047002.0,N
1564506215.6,286046999.8,N
1564506235.5,286047003.9,N
1564506255.3,286047004.3,N
1564506275.1,286047003.2,N
1564506295.9,286047001.8,N
1564506315.7,286047002.2,N
1564506335.6,286047002.1,N
1564506355.4,286047001.5,N
1564506375.2,286047004.4,Y
1564506395.1,286047001.2,P
1564506396.0,286047001.2,P
1564506415.8,286046999.9,N
1564506435.7,286047000.7,N
1564506455.5,286047001.1,N
1564506475.3,286046998.2,Y
1564506495.2,286046997.0,P
1564506515.0,286046999.4,N
1564506515.9,286046999.4,N
1564506535.7,286046998.6,N
1564506555.6,286046999.0,N
1564506575.4,286047000.4,N
1564506595.3,286047000.0,N
1564506615.1,286047000.6,N
1564506616.0,286047000.6,N
1564506635.8,286047000.5,N
1564506655.7,286046998.2,N
1564506675.5,286046998.7,N
1564506695.4,286046998.3,N
1564506715.2,286046999.0,N
1564506735.0,286046998.7,N
1564506735.9,286046998.7,N
1564506755.8,286047000.8,N
1564506775.6,286047000.7,N
1564506795.4,286046998.6,N
1564506815.3,286047002.8,N
1564506835.1,286047000.6,N
1564506855.9,286047002.1,N
1564506875.7,286047002.3,N
1564506895.5,286047002.1,N
1564506915.4,286047000.3,N
1564506935.2,286047002.4,N
1564506955.0,286047000.6,N
1564506956.0,286047000.6,N
1564506975.8,286047002.8,N
1564506995.6,286047000.2,N
1564507015.5,286047000.5,N
1564507035.3,286046999.9,N
1564507055.1,286047002.7,N
1564507075.9,286047002.8,N
1564507095.7,286047002.3,N
1564507115.6,286047000.0,N
1564507135.4,286046999.9,N
1564507155.2,286046999.9,N
1564507175.1,286047000.0,N
1564507176.0,286047000.0,N
1564507195.8,286047001.0,N
1564507215.6,286046999.8,N
1564507235.5,286046999.8,N
1564507255.3,286047002.4,N
1564507275.2,286047000.0,N
1564507295.0,286047002.4,N
1564507295.9,286047002.4,N
1564507315.7,286047001.1,N
1564507335.6,286046999.9,N
1564507355.4,286047001.0,N
1564507375.3,286046998.3,N
1564507395.1,286047000.4,N
1564507415.8,286046998.8,N
1564507435.7,286047000.3,N
1564507455.5,286047000.5,N
1564507475.4,286047000.0,N
1564507495.2,286047002.1,N
1564507515.0,286046999.8,N
1564507515.9,286046999.8,N
1564507535.8,286046999.9,N
1564507555.6,286047002.6,N
1564507575.5,286047002.2,N
1564507595.3,286047000.7,N
1564507615.1,286047001.9,N
1564507635.9,286047002.6,N
1564507655.7,286047001.6,N
1564507675.6,286047001.5,N
1564507695.4,286047001.8,N
1564507715.2,286047004.3,Y
1564507735.1,286047002.7,P
1564507736.0,286047002.7,N
1564507755.8,286047001.9,N
1564507775.7,286047001.5,N
1564507795.5,286047001.7,N
1564507815.3,286047004.3,Y
1564507835.2,286047000.9,P
1564507855.0,286047000.5,N
1564507855.9,286047000.5,N
1564507875.8,286047000.0,N
1564507895.6,286046998.1,Y
1564507915.4,286046999.0,P
1564507935.3,286046999.3,N
1564507955.1,286046996.9,P
1564507975.8,286046996.6,N
1564507995.7,286046997.4,N
1564508015.5,286046997.7,N
1564508035.4,286046997.7,N
1564508055.2,286046995.3,Y
1564508075.0,286046997.1,P
1564508076.0,286046997.1,P
1564508095.8,286046996.9,P
1564508115.6,286046997.4,Y
1564508135.5,286047000.7,P
1564508155.3,286047001.2,N
1564508175.1,286047000.8,N
1564508195.9,286047001.0,N
1564508215.7,286047000.8,N
1564508235.6,286047001.1,N
1564508255.4,286046998.2,N
1564508275.2,286047001.1,N
1564508295.1,286047001.2,N
1564508296.0,286047001.2,N
1564508315.8,286047001.2,N
1564508335.7,286046998.6,N
1564508355.5,286046998.5,N
1564508375.3,286046998.2,N
1564508395.2,286046998.5,N
1564508415.0,286046998.6,N
1564508415.9,286046998.6,N
1564508435.7,286047001.1,N
1564508455.6,286046998.6,N
1564508475.4,286046998.8,N
1564508495.3,286046999.5,N
1564508515.1,286046999.5,N
1564508535.8,286046998.4,N
1564508555.7,286046998.7,N
1564508575.5,286046999.3,N
1564508595.4,286046999.1,N
1564508615.2,286046997.0,N
1564508635.0,286046999.1,N
1564508635.9,286046999.1,N
1564508655.8,286046998.8,N
1564508675.6,286046998.4,N
1564508695.4,286047001.1,N
1564508715.3,286046998.3,N
1564508735.1,286046998.4,N
1564508755.9,286046998.4,N
1564508775.7,286046998.6,N
1564508795.5,286047000.9,N
1564508815.4,286046998.2,N
1564508835.2,286046998.1,N
1564508855.1,286046998.8,N
1564508856.0,286046998.8,N
1564508875.8,286046998.6,N
1564508895.6,286047000.7,N
1564508915.5,286046998.9,N
1564508935.3,286046996.5,Y
1564508955.2,286046998.9,P
1564508975.9,286046998.1,P
1564508995.7,286046998.9,N
1564509015.6,286046996.7,Y
1564509035.4,286047000.5,P
1564509055.2,286046998.4,N
1564509075.1,286046999.3,N
1564509076.0,286046999.3,N
1564509095.8,286046998.9,N
1564509115.7,286047000.3,N
1564509135.5,286047002.1,N
1564509155.3,286047001.9,N
1564509175.2,286047002.3,N
1564509195.0,286047001.7,N
1564509195.9,286047001.7,N
1564509215.8,286047002.5,N
1564509235.6,286047001.6,N
1564509255.4,286047002.3,N
1564509275.3,286047002.2,N
1564509295.1,286047002.3,N
1564509315.8,286047001.6,N
1564509335.7,286047001.8,N
1564509355.5,286047002.2,N
1564509375.4,286047001.8,N
1564509395.2,286047001.7,N
1564509415.0,286047001.6,N
1564509415.9,286047001.6,N
1564509435.8,286047001.5,N
1564509455.6,286047001.8,N
1564509475.4,286047002.5,N
1564509495.3,286047001.4,N
1564509515.1,286047003.4,N
1564509535.9,286047001.4,N
1564509555.7,286047003.0,N
1564509575.5,286047003.3,N
1564509595.4,286047005.5,Y
